Regional Weather Roundup
Issued by NWS Raleigh/Durham, NC

Home | Current Version | Previous Version | Text Only | Print | Product List | Glossary On
Versions: 1 2 3 4 5 6 7 8 9 10 11 12 13 14 15 16 17 18 19 20 21 22 23 24 25 26 27 28 29 30 31 32 33 34 35 36 37 38 39 40 41 42 43 44 45 46 47 48 49 50
000
ASUS42 KRAH 040410
RWRRAH
NORTH CAROLINA WEATHER ROUNDUP
NATIONAL WEATHER SERVICE RALEIGH NC
1200 AM EDT MON MAY 04 2015

NOTE: "FAIR" INDICATES FEW OR NO CLOUDS BELOW 12,000 FEET WITH NO
SIGNIFICANT WEATHER AND/OR OBSTRUCTIONS TO VISIBILITY.

NCZ001-053-055-056-065-067-040500-
WESTERN NORTH CAROLINA

CITY           SKY/WX    TMP DP  RH WIND       PRES   REMARKS
ASHEVILLE      CLOUDY    58  49  72 CALM      30.24R
JEFFERSON      CLOUDY    59  43  54 CALM      30.26R
MORGANTON      CLOUDY    57  51  80 CALM      30.25R
HICKORY        MOCLDY    63  49  60 S3        30.20R
RUTHERFORDTON  CLOUDY    58  50  76 CALM      30.22R
MOUNT AIRY     MOCLDY    64  50  60 CALM      30.23R
BOONE          PTCLDY    55  43  64 CALM      30.27R
$$

NCZ021-022-025-041-071-084-088-040500-
CENTRAL NORTH CAROLINA

CITY           SKY/WX    TMP DP  RH WIND       PRES   REMARKS
CHARLOTTE      CLEAR     63  48  58 S3        30.21R
GREENSBORO     MOCLDY    63  48  58 S3        30.21R
WINSTON-SALEM  PTCLDY    60  49  66 CALM      30.22R
RALEIGH-DURHAM PTCLDY    63  48  58 S9        30.23R
FORT BRAGG     CLEAR     64  49  58 S5        30.23R
FAYETTEVILLE   CLEAR     62  49  62 S6        30.23R
BURLINGTON     CLEAR     54  51  90 CALM      30.21R
LAURINBURG     CLEAR     62  52  69 S8        30.24R
$$

NCZ011-015-027-028-043-044-047-080-103-040500-
NORTHEASTERN NORTH CAROLINA

CITY           SKY/WX    TMP DP  RH WIND       PRES   REMARKS
ROCKY MT-WILSO CLEAR     59  47  64 S5        30.23R
GREENVILLE     CLEAR     59  48  67 S6        30.24S
WASHINGTON     CLEAR     62  47  57 S5        30.25R
ELIZABETH CITY PTCLDY    64  51  62 SW9       30.22R
MANTEO         MOCLDY    61  53  75 S5        30.24R
CAPE HATTERAS  PTCLDY    60  54  80 W7        30.25R
$$

NCZ078-087-090-091-093-098-101-040500-
SOUTHEASTERN NORTH CAROLINA

CITY           SKY/WX    TMP DP  RH WIND       PRES   REMARKS
LUMBERTON      CLEAR     59  52  77 CALM      30.23S
GOLDSBORO      CLEAR     61  46  57 CALM      30.22R
KINSTON        CLEAR     61  48  61 S6        30.25S
KENANSVILLE    CLEAR     54  48  80 CALM      30.26R
NEW BERN       CLEAR     58  51  78 CALM      30.26R
CHERRY POINT   CLEAR     58  54  86 SW5       30.26R
BEAUFORT       PTCLDY    61  57  87 S5        30.25S
JACKSONVILLE   CLEAR     56  53  90 CALM      30.25R
WILMINGTON     CLEAR     58  53  84 CALM      30.25R
$$



USA.gov is the U.S. government's official web portal to all federal, state and local government web resources and services.